PRC TEST SPACECRAFT2 (53357 NORAD) Tracking and Keplerian Element Data

This shows tracking and keplerian element data for the satellite.

Feedback or suggestion? Click here.




ElementValue
Catalog53357
NamePRC TEST SPACECRAFT2
Epoch Orbit1651
Epoch Day325.20841388
Epoch Year2022
RAAN351.7371
Inclination49.9931
Eccentricity0.0005732
Argument of Perigee17.8534
Mean Anonmoly105.3487
Mean Motion14.88429108
Decay Rate-0.00896108
L11 53357U 22093A 22325.20841388 -.00896108 00000+0 -10215+0 0 9998
L22 53357 49.9931 351.7371 0005732 17.8534 105.3487 14.88429108 16518



Live tracking and technical data element details for PRC TEST SPACECRAFT2 (NORAD 53357). PRC TEST SPACECRAFT2 can be tracked NOW for your location showing map with azimuth and elevation plus other details from your city location.







IsCatalogInMostPopularTable: catalog: 53357, numindb: 24
Update: records affected: 1



GetName: 53357 PRC TEST SPACECRAFT2

Hit Count: updated at: Thu, 08 Dec 2022 18:33:08 GMT